| time (UTC) | temp F | wind direction | speed knots | gust knots | rain 1hr in | rain 24hr in | rain mn in | humidity % | barometer mb |
| 20260505025119 | 78 | 306 | 1.7 | 2.6 | 0.00 | 0.00 | 0.00 | 61 | 1015.0 |
| 20260505024619 | 78 | 65 | 3.5 | 5.2 | 0.00 | 0.00 | 0.00 | 61 | 1016.0 |
| 20260505024117 | 80 | 91 | 4.3 | 4.3 | 0.00 | 0.00 | 0.00 | 61 | 1016.0 |
| 20260505023616 | 80 | 57 | 2.6 | 3.5 | 0.00 | 0.00 | 0.00 | 60 | 1016.0 |
| 20260505023118 | 81 | 220 | 1.7 | 4.3 | 0.00 | 0.00 | 0.00 | 60 | 1016.0 |
| 20260505022621 | 80 | 321 | 0.0 | 2.6 | 0.00 | 0.00 | 0.00 | 62 | 1016.0 |
| 20260505022117 | 79 | 22 | 1.7 | 2.6 | 0.00 | 0.00 | 0.00 | 64 | 1016.0 |
| 20260505021624 | 79 | 238 | 1.7 | 2.6 | 0.00 | 0.00 | 0.00 | 63 | 1016.0 |
| 20260505021119 | 80 | 185 | 1.7 | 4.3 | 0.00 | 0.00 | 0.00 | 62 | 1016.0 |
| 20260505020620 | 78 | 122 | 0.0 | 1.7 | 0.00 | 0.00 | 0.00 | 64 | 1016.0 |
| 20260505020117 | 78 | 223 | 0.9 | 1.7 | 0.00 | 0.00 | 0.00 | 63 | 1016.0 |
| 20260505015616 | 78 | 235 | 0.9 | 3.5 | 0.00 | 0.00 | 0.00 | 65 | 1016.0 |
| 20260505015115 | 79 | 99 | 2.6 | 4.3 | 0.00 | 0.00 | 0.00 | 64 | 1016.0 |
| 20260505014616 | 78 | 144 | 0.9 | 2.6 | 0.00 | 0.00 | 0.00 | 65 | 1017.0 |
| 20260505014115 | 78 | 218 | 0.9 | 2.6 | 0.00 | 0.00 | 0.00 | 66 | 1016.0 |
| 20260505013615 | 79 | 182 | 3.5 | 3.5 | 0.00 | 0.00 | 0.00 | 63 | 1017.0 |
| 20260505013116 | 80 | 354 | 1.7 | 2.6 | 0.00 | 0.00 | 0.00 | 63 | 1017.0 |
| 20260505012615 | 79 | 232 | 3.5 | 4.3 | 0.00 | 0.00 | 0.00 | 63 | 1017.0 |
| 20260505012115 | 79 | 183 | 2.6 | 4.3 | 0.00 | 0.00 | 0.00 | 64 | 1017.0 |
| 20260505011616 | 78 | 16 | 2.6 | 2.6 | 0.00 | 0.00 | 0.00 | 66 | 1017.0 |
| 20260505011117 | 77 | 21 | 2.6 | 2.6 | 0.00 | 0.00 | 0.00 | 67 | 1017.0 |
| 20260505010615 | 76 | 316 | 1.7 | 2.6 | 0.00 | 0.00 | 0.00 | 69 | 1017.0 |
| 20260505010119 | 77 | 336 | 1.7 | 3.5 | 0.00 | 0.00 | 0.00 | 68 | 1018.0 |
| 20260505005619 | 77 | 288 | 2.6 | 3.5 | 0.00 | 0.00 | 0.00 | 67 | 1018.0 |
| 20260505005117 | 78 | 208 | 4.3 | 5.2 | 0.00 | 0.00 | 0.00 | 68 | 1018.0 |
| 20260505004615 | 75 | 115 | 0.0 | 4.3 | 0.00 | 0.00 | 0.00 | 72 | 1018.0 |
| 20260505004115 | 76 | 37 | 4.3 | 5.2 | 0.00 | 0.00 | 0.00 | 71 | 1018.0 |
| 20260505003615 | 76 | 76 | 2.6 | 2.6 | 0.00 | 0.00 | 0.00 | 72 | 1018.0 |
| 20260505003115 | 76 | 166 | 3.5 | 4.3 | 0.00 | 0.00 | 0.00 | 73 | 1018.0 |
| 20260505002615 | 76 | 146 | 1.7 | 2.6 | 0.00 | 0.00 | 0.00 | 74 | 1018.0 |
| 20260505002115 | 76 | 283 | 1.7 | 2.6 | 0.00 | 0.00 | 0.00 | 73 | 1018.0 |
| 20260505001615 | 76 | 184 | 5.2 | 5.2 | 0.00 | 0.00 | 0.00 | 73 | 1018.0 |
| 20260505001115 | 75 | 204 | 3.5 | 4.3 | 0.00 | 0.00 | 0.00 | 75 | 1018.0 |
| 20260505000616 | 75 | 316 | 0.9 | 4.3 | 0.00 | 0.00 | 0.00 | 75 | 1018.0 |
| 20260505000115 | 75 | 241 | 3.5 | 3.5 | 0.00 | 0.00 | 0.00 | 74 | 1018.0 |
| 20260504235615 | 74 | 189 | 1.7 | 4.3 | 0.00 | 0.00 | 0.00 | 76 | 1018.0 |
| 20260504235116 | 74 | 298 | 0.9 | 3.5 | 0.00 | 0.00 | 0.00 | 78 | 1018.0 |
| 20260504234615 | 73 | 261 | 0.0 | 3.5 | 0.00 | 0.00 | 0.00 | 80 | 1018.0 |
| 20260504234115 | 73 | 260 | 4.3 | 4.3 | 0.00 | 0.00 | 0.00 | 80 | 1018.0 |
| 20260504233616 | 73 | 225 | 3.5 | 4.3 | 0.00 | 0.00 | 0.00 | 81 | 1018.0 |
| 20260504233115 | 72 | 244 | 3.5 | 5.2 | 0.00 | 0.00 | 0.00 | 82 | 1019.0 |
| 20260504232616 | 72 | 186 | 0.9 | 5.2 | 0.00 | 0.00 | 0.00 | 82 | 1018.0 |
| 20260504232115 | 72 | 197 | 2.6 | 3.5 | 0.00 | 0.00 | 0.00 | 83 | 1018.0 |
| 20260504231615 | 71 | 303 | 0.0 | 5.2 | 0.00 | 0.00 | 0.00 | 84 | 1019.0 |
| 20260504231115 | 71 | 170 | 2.6 | 5.2 | 0.00 | 0.00 | 0.00 | 84 | 1019.0 |
| 20260504230615 | 71 | 130 | 0.9 | 4.3 | 0.00 | 0.00 | 0.00 | 86 | 1018.0 |
| 20260504230121 | 70 | 273 | 0.0 | 4.3 | 0.00 | 0.00 | 0.00 | 87 | 1018.0 |
| 20260504225615 | 70 | 218 | 1.7 | 4.3 | 0.00 | 0.00 | 0.00 | 88 | 1018.0 |
| 20260504225115 | 69 | 199 | 2.6 | 5.2 | 0.00 | 0.00 | 0.00 | 89 | 1018.0 |
| 20260504224617 | 69 | 189 | 3.5 | 6.1 | 0.00 | 0.00 | 0.00 | 90 | 1018.0 |
| 20260504224117 | 69 | 158 | 1.7 | 5.2 | 0.00 | 0.00 | 0.00 | 91 | 1018.0 |
| 20260504223615 | 69 | 174 | 3.5 | 5.2 | 0.00 | 0.00 | 0.00 | 91 | 1018.0 |
| 20260504223116 | 68 | 209 | 2.6 | 2.6 | 0.00 | 0.00 | 0.00 | 96 | 1018.0 |
| 20260504222615 | 68 | 153 | 2.6 | 4.3 | 0.00 | 0.00 | 0.00 | 97 | 1018.0 |
| 20260504222116 | 67 | 225 | 0.0 | 3.5 | 0.00 | 0.00 | 0.00 | 98 | 1018.0 |
| 20260504221616 | 67 | 159 | 2.6 | 2.6 | 0.00 | 0.00 | 0.00 | 98 | 1018.0 |
| 20260504221116 | 66 | 229 | 0.9 | 5.2 | 0.00 | 0.00 | 0.00 | 98 | 1018.0 |
| 20260504220615 | 66 | 148 | 4.3 | 4.3 | 0.00 | 0.00 | 0.00 | 98 | 1018.0 |
| 20260504220115 | 66 | 173 | 0.9 | 2.6 | 0.00 | 0.00 | 0.00 | 98 | 1018.0 |
| 20260504215615 | 66 | 253 | 2.6 | 3.5 | 0.00 | 0.00 | 0.00 | 98 | 1018.0 |
| 20260504215115 | 66 | 126 | 1.7 | 2.6 | 0.00 | 0.00 | 0.00 | 98 | 1018.0 |
| 20260504214615 | 65 | 175 | 0.9 | 2.6 | 0.00 | 0.00 | 0.00 | 98 | 1018.0 |
| 20260504214115 | 65 | 248 | 0.0 | 1.7 | 0.00 | 0.00 | 0.00 | 98 | 1018.0 |
| 20260504213615 | 65 | 166 | 0.0 | 2.6 | 0.00 | 0.00 | 0.00 | 98 | 1018.0 |
| 20260504213117 | 65 | 139 | 2.6 | 4.3 | 0.00 | 0.00 | 0.00 | 98 | 1018.0 |
| 20260504212616 | 65 | 103 | 1.7 | 2.6 | 0.00 | 0.00 | 0.00 | 98 | 1018.0 |
| 20260504212115 | 65 | 231 | 1.7 | 3.5 | 0.00 | 0.00 | 0.00 | 98 | 1018.0 |
| 20260504211618 | 65 | 161 | 2.6 | 3.5 | 0.00 | 0.00 | 0.00 | 98 | 1018.0 |
| 20260504211116 | 64 | 266 | 0.9 | 3.5 | 0.00 | 0.00 | 0.00 | 98 | 1018.0 |
| 20260504210616 | 64 | 188 | 0.9 | 2.6 | 0.00 | 0.00 | 0.00 | 98 | 1018.0 |
| 20260504210115 | 64 | 182 | 2.6 | 2.6 | 0.00 | 0.00 | 0.00 | 98 | 1018.0 |
| 20260504205615 | 64 | 145 | 3.5 | 4.3 | 0.00 | 0.00 | 0.00 | 98 | 1018.0 |
| 20260504205116 | 64 | 177 | 1.7 | 2.6 | 0.00 | 0.00 | 0.00 | 98 | 1018.0 |
| 20260504204615 | 64 | 219 | 0.9 | 2.6 | 0.00 | 0.00 | 0.00 | 98 | 1018.0 |
| 20260504204115 | 64 | 106 | 0.0 | 1.7 | 0.00 | 0.00 | 0.00 | 98 | 1018.0 |
| 20260504203618 | 64 | 134 | 0.9 | 3.5 | 0.00 | 0.00 | 0.00 | 98 | 1018.0 |
| 20260504203115 | 64 | 163 | 2.6 | 2.6 | 0.00 | 0.00 | 0.00 | 98 | 1018.0 |
| 20260504202617 | 64 | 99 | 0.9 | 2.6 | 0.00 | 0.00 | 0.00 | 98 | 1018.0 |
| 20260504202115 | 64 | 221 | 0.9 | 4.3 | 0.00 | 0.00 | 0.00 | 98 | 1018.0 |
| 20260504201617 | 64 | 178 | 1.7 | 3.5 | 0.00 | 0.00 | 0.00 | 98 | 1018.0 |
| 20260504201116 | 64 | 149 | 2.6 | 2.6 | 0.00 | 0.00 | 0.00 | 98 | 1017.0 |
| 20260504200616 | 64 | 167 | 2.6 | 4.3 | 0.00 | 0.00 | 0.00 | 98 | 1017.0 |
| 20260504200115 | 64 | 220 | 2.6 | 4.3 | 0.00 | 0.00 | 0.00 | 98 | 1017.0 |
| 20260504195616 | 64 | 193 | 1.7 | 2.6 | 0.00 | 0.00 | 0.00 | 98 | 1017.0 |
| 20260504195117 | 64 | 252 | 1.7 | 2.6 | 0.00 | 0.00 | 0.00 | 98 | 1017.0 |
| 20260504194617 | 64 | 213 | 1.7 | 2.6 | 0.00 | 0.00 | 0.00 | 98 | 1017.0 |
| 20260504194118 | 64 | 45 | 0.9 | 2.6 | 0.00 | 0.00 | 0.00 | 98 | 1017.0 |
| 20260504193616 | 64 | 167 | 2.6 | 3.5 | 0.00 | 0.00 | 0.00 | 97 | 1017.0 |
| 20260504193115 | 64 | 179 | 0.0 | 2.6 | 0.00 | 0.00 | 0.00 | 98 | 1017.0 |
| 20260504192616 | 63 | 143 | 1.7 | 2.6 | 0.00 | 0.00 | 0.00 | 98 | 1017.0 |
| 20260504191630 | 64 | 239 | 0.9 | 3.5 | 0.00 | 0.00 | 0.00 | 97 | 1017.0 |
| 20260504191115 | 64 | 161 | 0.0 | 2.6 | 0.00 | 0.00 | 0.00 | 97 | 1017.0 |
| 20260504190615 | 64 | 167 | 0.9 | 1.7 | 0.00 | 0.00 | 0.00 | 97 | 1017.0 |
| 20260504190115 | 64 | 140 | 1.7 | 2.6 | 0.00 | 0.00 | 0.00 | 97 | 1017.0 |
| 20260504185616 | 64 | 129 | 1.7 | 2.6 | 0.00 | 0.00 | 0.00 | 97 | 1017.0 |
| 20260504185121 | 64 | 220 | 0.0 | 1.7 | 0.00 | 0.00 | 0.00 | 97 | 1017.0 |
| 20260504184615 | 64 | 161 | 0.9 | 1.7 | 0.00 | 0.00 | 0.00 | 97 | 1017.0 |
| 20260504184115 | 64 | 123 | 1.7 | 2.6 | 0.00 | 0.00 | 0.00 | 97 | 1017.0 |
| 20260504183615 | 64 | 89 | 0.0 | 1.7 | 0.00 | 0.00 | 0.00 | 97 | 1017.0 |
| 20260504183115 | 64 | 140 | 0.9 | 1.7 | 0.00 | 0.00 | 0.00 | 97 | 1016.0 |
| 20260504182615 | 64 | 187 | 0.9 | 2.6 | 0.00 | 0.00 | 0.00 | 97 | 1017.0 |
| 20260504182115 | 64 | 237 | 1.7 | 1.7 | 0.00 | 0.00 | 0.00 | 97 | 1016.0 |
| 20260504181616 | 64 | 151 | 0.9 | 2.6 | 0.00 | 0.00 | 0.00 | 97 | 1017.0 |
| 20260504181116 | 64 | 206 | 0.0 | 1.7 | 0.00 | 0.00 | 0.00 | 97 | 1016.0 |
| 20260504180616 | 64 | 98 | 0.9 | 1.7 | 0.00 | 0.00 | 0.00 | 97 | 1016.0 |
| 20260504180115 | 64 | 211 | 0.9 | 2.6 | 0.00 | 0.00 | 0.00 | 97 | 1016.0 |
| 20260504175616 | 65 | 300 | 0.0 | 1.7 | 0.00 | 0.00 | 0.00 | 97 | 1016.0 |
| 20260504175116 | 65 | 262 | 0.9 | 1.7 | 0.00 | 0.00 | 0.00 | 97 | 1016.0 |
| 20260504174616 | 65 | 279 | 0.9 | 1.7 | 0.00 | 0.00 | 0.00 | 97 | 1016.0 |
| 20260504174118 | 65 | 180 | 1.7 | 1.7 | 0.00 | 0.00 | 0.00 | 97 | 1016.0 |
| 20260504173616 | 65 | 180 | 0.0 | 1.7 | 0.00 | 0.00 | 0.00 | 97 | 1017.0 |
| 20260504173116 | 65 | 267 | 1.7 | 2.6 | 0.00 | 0.00 | 0.00 | 97 | 1017.0 |
| 20260504172616 | 65 | 278 | 1.7 | 3.5 | 0.00 | 0.00 | 0.00 | 97 | 1016.0 |
| 20260504172116 | 65 | 175 | 1.7 | 1.7 | 0.00 | 0.00 | 0.00 | 97 | 1016.0 |
| 20260504171616 | 65 | 214 | 0.9 | 3.5 | 0.00 | 0.00 | 0.00 | 97 | 1016.0 |
| 20260504171115 | 65 | 273 | 0.9 | 2.6 | 0.00 | 0.00 | 0.00 | 97 | 1016.0 |
| 20260504170616 | 65 | 247 | 1.7 | 2.6 | 0.00 | 0.00 | 0.00 | 97 | 1017.0 |
| 20260504170115 | 66 | 235 | 0.9 | 2.6 | 0.00 | 0.00 | 0.00 | 97 | 1016.0 |
| 20260504160117 | 65 | 187 | 1.7 | 2.6 | 0.00 | 0.00 | 0.00 | 96 | 1017.0 |
| 20260504151116 | 66 | 235 | 0.0 | 1.7 | 0.00 | 0.00 | 0.00 | 95 | 1017.0 |
| 20260504150616 | 66 | 40 | 0.9 | 1.7 | 0.00 | 0.00 | 0.00 | 95 | 1017.0 |
| 20260504150116 | 67 | 180 | 1.7 | 1.7 | 0.00 | 0.00 | 0.00 | 95 | 1017.0 |
| 20260504141117 | 66 | 146 | 1.7 | 2.6 | 0.00 | 0.00 | 0.00 | 95 | 1017.0 |
| 20260504140620 | 66 | 300 | 0.9 | 2.6 | 0.00 | 0.00 | 0.00 | 95 | 1018.0 |
| 20260504140120 | 66 | 147 | 1.7 | 2.6 | 0.00 | 0.00 | 0.00 | 95 | 1018.0 |
| 20260504130619 | 67 | 224 | 1.7 | 2.6 | 0.00 | 0.00 | 0.00 | 93 | 1018.0 |
| 20260504130119 | 67 | 132 | 0.0 | 3.5 | 0.00 | 0.00 | 0.00 | 93 | 1018.0 |
| 20260504120115 | 69 | 122 | 1.7 | 2.6 | 0.00 | 0.00 | 0.00 | 91 | 1018.0 |
| 20260504110615 | 69 | 111 | 1.7 | 4.3 | 0.00 | 0.00 | 0.00 | 91 | 1019.0 |
| 20260504110115 | 69 | 112 | 3.5 | 4.3 | 0.00 | 0.00 | 0.00 | 91 | 1019.0 |
| 20260504100615 | 69 | 121 | 1.7 | 2.6 | 0.00 | 0.00 | 0.00 | 90 | 1019.0 |
| 20260504100115 | 70 | 110 | 0.9 | 2.6 | 0.00 | 0.00 | 0.00 | 89 | 1018.0 |
| 20260504090116 | 71 | 88 | 3.5 | 4.3 | 0.00 | 0.00 | 0.00 | 86 | 1018.0 |
| 20260504081616 | 71 | 92 | 3.5 | 4.3 | 0.00 | 0.00 | 0.00 | 83 | 1017.0 |
| 20260504081115 | 72 | 113 | 2.6 | 3.5 | 0.00 | 0.00 | 0.00 | 83 | 1017.0 |
| 20260504080616 | 72 | 102 | 2.6 | 3.5 | 0.00 | 0.00 | 0.00 | 82 | 1017.0 |
| 20260504080115 | 72 | 85 | 1.7 | 4.3 | 0.00 | 0.00 | 0.00 | 82 | 1017.0 |
| 20260504070116 | 74 | 28 | 2.6 | 6.1 | 0.00 | 0.00 | 0.00 | 76 | 1017.0 |
| 20260504060115 | 75 | 105 | 4.3 | 5.2 | 0.00 | 0.00 | 0.00 | 72 | 1016.0 |
| 20260504050615 | 77 | 111 | 7.8 | 8.7 | 0.00 | 0.00 | 0.00 | 68 | 1016.0 |
| 20260504050115 | 77 | 48 | 6.1 | 7.8 | 0.00 | 0.00 | 0.00 | 67 | 1016.0 |
| 20260504045616 | 77 | 97 | 4.3 | 6.1 | 0.00 | 0.00 | 0.00 | 67 | 1016.0 |
| 20260504045117 | 77 | 105 | 4.3 | 9.6 | 0.00 | 0.00 | 0.00 | 66 | 1016.0 |
| 20260504044615 | 77 | 126 | 3.5 | 6.1 | 0.00 | 0.00 | 0.00 | 67 | 1016.0 |
| 20260504044115 | 77 | 57 | 6.1 | 10.4 | 0.00 | 0.00 | 0.00 | 67 | 1016.0 |
| 20260504043616 | 77 | 85 | 3.5 | 10.4 | 0.00 | 0.00 | 0.00 | 67 | 1016.0 |
| 20260504043115 | 79 | 86 | 7.0 | 9.6 | 0.00 | 0.00 | 0.00 | 64 | 1016.0 |
| 20260504042615 | 79 | 119 | 3.5 | 5.2 | 0.00 | 0.00 | 0.00 | 64 | 1016.0 |
| 20260504042116 | 78 | 71 | 5.2 | 5.2 | 0.00 | 0.00 | 0.00 | 65 | 1016.0 |
| 20260504041616 | 77 | 53 | 1.7 | 4.3 | 0.00 | 0.00 | 0.00 | 65 | 1016.0 |
| 20260504041115 | 78 | 71 | 7.8 | 7.8 | 0.00 | 0.00 | 0.00 | 63 | 1016.0 |
| 20260504040616 | 78 | 56 | 5.2 | 7.8 | 0.00 | 0.00 | 0.00 | 63 | 1016.0 |
| 20260504040116 | 79 | 41 | 2.6 | 7.8 | 0.00 | 0.00 | 0.00 | 62 | 1016.0 |
| 20260504035615 | 79 | 50 | 4.3 | 7.0 | 0.00 | 0.00 | 0.00 | 61 | 1016.0 |
| 20260504035116 | 79 | 54 | 4.3 | 7.0 | 0.00 | 0.00 | 0.00 | 60 | 1016.0 |
| 20260504034616 | 78 | 80 | 2.6 | 5.2 | 0.00 | 0.00 | 0.00 | 62 | 1016.0 |
| 20260504034115 | 79 | 46 | 4.3 | 9.6 | 0.00 | 0.00 | 0.00 | 62 | 1016.0 |
| 20260504033615 | 79 | 71 | 7.8 | 9.6 | 0.00 | 0.00 | 0.00 | 61 | 1016.0 |
| 20260504033116 | 78 | 63 | 6.1 | 8.7 | 0.00 | 0.00 | 0.00 | 59 | 1016.0 |
| 20260504032615 | 78 | 52 | 4.3 | 8.7 | 0.00 | 0.00 | 0.00 | 61 | 1016.0 |
| 20260504032115 | 78 | 22 | 2.6 | 9.6 | 0.00 | 0.00 | 0.00 | 62 | 1017.0 |
| 20260504031615 | 80 | 76 | 6.1 | 9.6 | 0.00 | 0.00 | 0.00 | 60 | 1017.0 |
| 20260504031115 | 80 | 84 | 1.7 | 7.8 | 0.00 | 0.00 | 0.00 | 61 | 1017.0 |
| 20260504030615 | 79 | 70 | 5.2 | 7.8 | 0.00 | 0.00 | 0.00 | 64 | 1017.0 |
| 20260504030115 | 78 | 65 | 7.0 | 9.6 | 0.00 | 0.00 | 0.00 | 65 | 1017.0 |
| 20260504025615 | 77 | 93 | 3.5 | 8.7 | 0.00 | 0.00 | 0.00 | 66 | 1017.0 |